Flag for Canada

Past Weather in Inuvik, Northwest Territories, Canada — Yesterday and Last 2 Weeks

Now
37 °F

Low clouds.


Feels Like: 29 °F
Forecast: 44 / 38 °F
Wind: 14 mph from Northeast

Location: Inuvik
Current Time: Sep 23, 2020 at 9:02:26 pm
Latest Report: Sep 23, 2020 at 8:00 pm
Visibility: 15 mi
Pressure29.65 "Hg
Humidity: 93%
Dew Point: 36 °F
Location of InuvikLocation

Past Weather in Inuvik — Graph

°F

Inuvik Temperature Yesterday

Maximum temperature yesterday: 45 °F (at 5:00 pm)
Minimum temperature yesterday: 32 °F (at 4:00 am)
Average temperature yesterday: 39 °F

High & Low Weather Summary for the Past Weeks

 TemperatureHumidityPressure
High59 °F (Sep 18, 5:00 pm)100% (Sep 8, 11:00 pm)30.38 "Hg (Sep 8, 11:00 pm)
Low28 °F (Sep 12, 9:00 am)41% (Sep 19, 3:00 pm)29.41 "Hg (Sep 18, 4:00 pm)
Average40 °F86%29.93 "Hg
* Reported Sep 8 7:00 pm — Sep 23 7:00 pm, Inuvik. Weather by CustomWeather, © 2020

Note: Actual official high and low records may vary slightly from our data, if they occured in-between our weather recording intervals... More about our weather records

Inuvik Weather History for the Previous 24 Hours

Scroll right to see more
 ConditionsComfort  
Time TempWeatherWind HumidityBarometerVisibility
7:00 pm
Wed, Sep 23
39 °FLow clouds.18 mph87%29.65 "Hg10 mi
6:00 pm39 °FLow clouds.12 mph87%29.68 "Hg10 mi
5:00 pm39 °FLow clouds.14 mph87%29.70 "Hg10 mi
4:00 pm37 °FFog.14 mph100%29.69 "Hg6 mi
3:37 pm37 °FFog.10 mph100%29.70 "Hg6 mi
3:00 pm37 °FFog.12 mph93%29.71 "Hg2 mi
2:00 pm36 °FFog.10 mph100%29.71 "Hg1 mi
1:00 pm36 °FFog.7 mph100%29.72 "Hg1 mi
12:00 pm34 °FFog.6 mph100%29.72 "Hg1 mi
11:26 am34 °FFog.5 mph100%29.72 "Hg1 mi
11:00 am34 °FFog.7 mph100%29.72 "Hg0 mi
10:25 am32 °FFog.7 mph100%29.73 "Hg0 mi
10:00 am32 °FFog.6 mph100%29.72 "Hg1 mi
9:36 am32 °FFog.7 mph100%29.73 "Hg1 mi
9:00 am32 °FFog.8 mph100%29.72 "Hg0 mi
8:00 am32 °FFog.12 mph100%29.72 "Hg0 mi
7:27 am32 °FFog.9 mph100%29.72 "Hg0 mi
7:00 am34 °FFog.8 mph100%29.72 "Hg0 mi
6:23 am34 °FFog.7 mph100%29.72 "Hg0 mi
6:00 am34 °FFog.9 mph100%29.72 "Hg0 mi
5:29 am34 °FFog.9 mph100%29.72 "Hg0 mi
5:00 am36 °FFog.7 mph100%29.72 "Hg0 mi
4:49 am36 °FFog.7 mph100%29.72 "Hg0 mi
4:16 am36 °FFog.10 mph100%29.71 "Hg0 mi
3:00 am36 °FFog.7 mph100%29.70 "Hg0 mi
2:54 am36 °FFog.6 mph100%29.70 "Hg0 mi
2:19 am36 °FFog.8 mph100%29.70 "Hg1 mi
1:32 am37 °FFog.6 mph100%29.70 "Hg1 mi
1:00 am37 °FFog.7 mph100%29.70 "Hg0 mi
12:57 am37 °FFog.8 mph100%29.70 "Hg0 mi
12:20 am39 °FFog.8 mph93%29.69 "Hg1 mi
12:00 am39 °FFog.9 mph93%29.69 "Hg5 mi
11:56 pm
Tue, Sep 22
39 °FFog.8 mph93%29.69 "Hg5 mi
11:41 pm39 °FMostly cloudy.8 mph93%29.68 "Hg15 mi
11:00 pm39 °FPartly cloudy.7 mph93%29.68 "Hg15 mi
10:00 pm41 °FPartly sunny.3 mph93%29.68 "Hg15 mi
9:00 pm43 °FPartly sunny.3 mph87%29.68 "Hg15 mi
Weather by CustomWeather, © 2020

See weather overview